Location: Hungerford
(51.4167°N, 1.5167°W)
Time: 13:14:53
(UTC+00:00)

Exosat Rocket - Pass Details

Date: 18 September 2020
Orbit: 761 x 2514 km, 72.3° (Epoch: 25 October)

Event Time Altitude Azimuth Distance (km) Brightness Sun altitude
Rises 20:59:40 0° 211° (SSW) 3,590 6.9 -24.9°
Reaches altitude 10° 21:02:20 10° 213° (SSW) 2,505 6.1 -25.2°
Maximum altitude 21:07:45 76° 299° (WNW) 805 3.6 -25.9°
Drops below altitude 10° 21:12:46 10° 26° (NNE) 2,319 6.2 -26.5°
Sets 21:15:09 0° 28° (NNE) 3,301 7.0 -26.7°
